[[{"header":{"parameterUnit":"m.s-1","parameterCategory":2,"la1":30.2991,"la2":30.254,"lo1":-89.0895,"lo2":-89.0444,"dy":0.0017,"dx":0.0017,"nx":28,"ny":28,"refTime":"2024-10-10T09:00:00:Z","depth":"0","parameterNumber":2,"parameterNumberName":"U-component_of_CURRENTS"},"data":[0,0,0,0,0,0,0,0,0,0,0,0,0,0,0,0,0,0,0,0,0,0,0,0,0,0,0,0,0,0,0,0,0,0,0,0,0,0,0,0,0,0,0,0,0,0,0,0,0,0,0,0,0,0,0,0,0,0,-0.2506,-0.2506,0,-0.2542,-0.2543,-0.2543,-0.2464,-0.2461,-0.2458,-0.2456,-0.2385,-0.2386,-0.2387,0,0,0,0,0,0,0,0,0,0,0,0,0,-0.2474,-0.2475,-0.2506,-0.2507,-0.2507,-0.2542,-0.2543,-0.2543,-0.2464,-0.2461,-0.2458,-0.2455,-0.2385,-0.2386,-0.2387,0,0,0,0,0,0,0,0,0,0,0,0,0,-0.2499,-0.2475,-0.2506,-0.247,-0.2467,-0.2542,-0.2543,-0.2544,-0.2465,-0.2461,-0.2457,-0.2453,-0.2385,-0.2386,-0.2387,-0.2475,0,0,-0.239,-0.2391,0,0,0,0,0,0,0,0,-0.2497,-0.25,-0.2475,-0.2473,-0.2469,-0.2493,-0.2506,-0.2515,-0.2466,-0.2468,-0.2456,-0.2451,-0.2413,-0.2412,-0.2432,-0.2472,-0.2469,-0.239,-0.2391,-0.2391,-0.2392,0,0,0,0,0,0,0,-0.2496,-0.2499,-0.2522,-0.2476,-0.2472,-0.2488,-0.2486,-0.2508,-0.2463,-0.2467,-0.2461,-0.2464,-0.241,-0.2431,-0.2429,-0.2468,-0.239,-0.2391,-0.2392,-0.2392,-0.2475,-0.2476,0,0,0,0,0,0,-0.2487,-0.2497,-0.2521,-0.2523,-0.2471,-0.2491,-0.2489,-0.2491,-0.2465,-0.2457,-0.2467,-0.246,-0.2432,-0.2428,-0.2426,-0.2431,-0.2391,-0.2392,-0.2393,-0.2473,-0.2475,-0.2477,0,0,0,0,0,0,-0.2486,-0.2489,-0.252,-0.2509,-0.2514,-0.2495,-0.2498,-0.2494,-0.2495,-0.2465,-0.2455,-0.2469,-0.2428,-0.2425,-0.2442,-0.243,-0.2393,-0.2394,-0.2472,-0.2474,-0.2476,-0.2502,0,0,0,0,0,0,-0.2485,-0.2488,-0.2495,-0.2509,-0.2514,-0.2551,-0.2502,-0.2497,-0.2503,-0.2493,-0.2465,-0.2455,-0.2425,-0.2441,-0.2443,-0.2431,-0.2394,-0.247,-0.2473,-0.2475,-0.2499,-0.2505,-0.251,0,0,0,0,0,-0.2484,-0.2516,-0.2496,-0.2499,-0.2521,-0.2552,-0.2557,-0.2532,-0.2507,-0.2517,-0.2503,-0.2455,-0.2459,-0.2445,-0.2447,-0.2434,-0.2468,-0.2472,-0.2475,-0.2497,-0.2504,-0.251,0,0,0,0,0,0,-0.2495,-0.2512,-0.2489,-0.2519,-0.2524,-0.2537,-0.2557,-0.2543,-0.2548,-0.2534,-0.2497,-0.2489,-0.2494,-0.2483,-0.2467,-0.2469,-0.2448,-0.2453,-0.2464,-0.2471,-0.2476,-0.2429,-0.2395,0,0,0,0,0,-0.2506,-0.253,-0.2536,-0.2553,-0.2565,-0.2564,-0.2576,-0.2558,-0.2563,-0.2559,-0.2542,-0.2526,-0.2522,-0.2509,-0.2511,-0.2533,-0.2493,-0.2522,-0.2527,-0.2532,-0.2498,-0.2437,-0.2432,-0.2489,-0.2489,-0.2489,0,0,-0.2506,-0.2523,-0.253,-0.2557,-0.2565,-0.2573,-0.2561,-0.2583,-0.257,-0.2556,-0.255,-0.2556,-0.2538,-0.2545,-0.2544,-0.2524,-0.2509,-0.2536,-0.254,-0.2502,-0.244,-0.2433,-0.2428,-0.2491,-0.2491,-0.249,0,0,-0.2516,-0.2545,-0.2557,-0.2575,-0.2591,-0.2597,-0.2601,-0.2617,-0.2605,-0.2623,-0.2597,-0.2591,-0.2605,-0.2569,-0.2556,-0.26,-0.2548,-0.2615,-0.2589,-0.2532,-0.2525,-0.2518,-0.251,-0.2502,-0.2605,-0.2605,-0.2605,0,-0.251,-0.2513,-0.2565,-0.258,-0.2582,-0.2602,-0.2596,-0.2613,-0.2622,-0.2619,-0.2613,-0.2609,-0.2597,-0.2569,-0.2579,-0.2602,-0.2586,-0.2562,-0.2533,-0.2525,-0.2518,-0.251,-0.2501,-0.2607,-0.2607,-0.2606,-0.2606,0,-0.2508,-0.2514,-0.2535,-0.2544,-0.2574,-0.2579,-0.2602,-0.2625,-0.2623,-0.2618,-0.2611,-0.2607,-0.2585,-0.2594,-0.2597,-0.2551,-0.2567,-0.2554,-0.2504,-0.2513,-0.2506,-0.2496,-0.2609,-0.2609,-0.2608,-0.2608,0,0,-0.2452,-0.2512,-0.2507,-0.2501,-0.2546,-0.2565,-0.2586,-0.2592,-0.2588,-0.2598,-0.2567,-0.2568,-0.2566,-0.2551,-0.2552,-0.2503,-0.2464,-0.251,-0.2506,-0.248,-0.2376,-0.2341,-0.2327,-0.2448,-0.2445,-0.2443,-0.241,0,-0.2401,-0.2408,-0.2458,-0.2449,-0.2449,-0.2507,-0.2523,-0.255,-0.2567,-0.2564,-0.2546,-0.2531,-0.2548,-0.254,-0.2495,-0.2475,-0.2431,-0.2476,-0.2389,-0.2386,-0.2334,-0.231,-0.2209,-0.2165,-0.24,-0.2398,-0.2397,0,-0.234,-0.2359,-0.2341,-0.2388,-0.2396,-0.2405,-0.244,-0.2461,-0.2492,-0.2509,-0.2498,-0.25,-0.2456,-0.2456,-0.2384,-0.242,-0.2391,-0.2366,-0.2364,-0.2296,-0.2328,-0.2187,-0.2137,-0.2136,-0.2381,-0.2382,-0.2383,0,-0.2232,-0.2265,-0.2241,-0.2255,-0.2323,-0.2333,-0.2369,-0.2426,-0.2446,-0.2462,-0.2468,-0.2437,-0.2408,-0.2357,-0.2339,-0.2357,-0.2253,-0.2267,-0.2205,-0.2206,-0.2078,-0.207,-0.1981,-0.2174,-0.2174,-0.2174,-0.2174,0,-0.2135,-0.2117,-0.2189,-0.2178,-0.2176,-0.2258,-0.2262,-0.2316,-0.2363,-0.2366,-0.2417,-0.2393,-0.2375,-0.2337,-0.2314,-0.2233,-0.2231,-0.2174,-0.2169,-0.2095,-0.2089,-0.2048,-0.2073,-0.2173,-0.2173,-0.2173,-0.2174,0,-0.2006,-0.2043,-0.2037,-0.2102,-0.2121,-0.2124,-0.2208,-0.2218,-0.2289,-0.229,-0.229,-0.234,-0.2299,-0.2291,-0.2214,-0.2191,-0.2081,-0.2092,-0.2037,-0.2023,-0.1954,-0.1985,-0.1855,-0.1807,-0.2006,-0.2005,-0.2003,0,-0.193,-0.1909,-0.1972,-0.1975,-0.1997,-0.2026,-0.2049,-0.2154,-0.2174,-0.2244,-0.2223,-0.222,-0.2182,-0.2107,-0.2058,-0.1999,-0.2008,-0.189,-0.1874,-0.1906,-0.1937,-0.1958,-0.193,-0.175,-0.1747,-0.1744,-0.1742,0,-0.1797,-0.1824,-0.1833,-0.1849,-0.1864,-0.1892,-0.1932,-0.1943,-0.205,-0.206,-0.2051,-0.2025,-0.1992,-0.1894,-0.1864,-0.1817,-0.1839,-0.1833,-0.1847,-0.1693,-0.1723,-0.1691,-0.1874,-0.1718,-0.1721,-0.1722,-0.1724,-0.1725,-0.1696,-0.1683,-0.1704,-0.1706,-0.173,-0.173,-0.1713,-0.1771,-0.1779,-0.1787,-0.1833,-0.178,-0.1767,-0.1698,-0.1669,-0.1608,-0.1652,-0.1564,-0.1596,-0.1614,-0.1552,-0.1709,-0.1559,-0.156,-0.1561,-0.1562,-0.1563,0,-0.1562,-0.1564,-0.1561,-0.1563,-0.1534,-0.1595,-0.1611,-0.1587,-0.1552,-0.1586,-0.1558,-0.1518,-0.1454,-0.1481,-0.1445,-0.1393,-0.1365,-0.1379,-0.1375,-0.1354,-0.1457,-0.1429,-0.1264,-0.1264,-0.1264,-0.1264,-0.1265,-0.1265,-0.149,-0.1441,-0.1446,-0.1358,-0.1358,-0.1284,-0.1265,-0.1264,-0.1274,-0.1229,-0.1225,-0.1241,-0.1294,-0.1412,-0.1365,-0.1308,-0.1297,-0.124,-0.1293,-0.1378,-0.1398,-0.1418,-0.1396,-0.1227,-0.1227,-0.1122,-0.1121,-0.1121]},{"header":{"parameterUnit":"m.s-1","parameterCategory":2,"la1":30.2991,"la2":30.254,"lo1":-89.0895,"lo2":-89.0444,"dy":0.0017,"dx":0.0017,"nx":28,"ny":28,"refTime":"2024-10-10T09:00:00:Z","depth":"0","parameterNumber":3,"parameterNumberName":"V-component_of_CURRENTS"},"data":[0,0,0,0,0,0,0,0,0,0,0,0,0,0,0,0,0,0,0,0,0,0,0,0,0,0,0,0,0,0,0,0,0,0,0,0,0,0,0,0,0,0,0,0,0,0,0,0,0,0,0,0,0,0,0,0,0,0,-0.0164,-0.0164,0,-0.0073,-0.0072,-0.0071,-0.0024,-0.0024,-0.0024,-0.0024,0.0085,0.0088,0.0091,0,0,0,0,0,0,0,0,0,0,0,0,0,-0.0233,-0.0232,-0.0165,-0.0164,-0.0162,-0.0074,-0.0072,-0.0071,-0.0024,-0.0024,-0.0024,-0.0024,0.0084,0.0088,0.0091,0,0,0,0,0,0,0,0,0,0,0,0,0,-0.0178,-0.0232,-0.0165,-0.0129,-0.0125,-0.0074,-0.0072,-0.007,-0.0024,-0.0024,-0.0024,-0.0024,0.0083,0.0087,0.0092,0.0121,0,0,0.0105,0.0107,0,0,0,0,0,0,0,0,-0.0181,-0.0175,-0.0135,-0.0132,-0.0127,-0.0061,-0.0056,-0.0006,-0.0024,-0.0061,-0.0024,-0.0024,0.0037,0.0046,0.0064,0.0126,0.013,0.0106,0.0108,0.011,0.0112,0,0,0,0,0,0,0,-0.0185,-0.0179,-0.0127,-0.0134,-0.0129,-0.0096,-0.0088,-0.0046,-0.0012,-0.0058,-0.0055,-0.0046,0.004,0.006,0.0067,0.0132,0.0106,0.011,0.0112,0.0114,0.0239,0.0239,0,0,0,0,0,0,-0.0202,-0.0183,-0.013,-0.0125,-0.0156,-0.0095,-0.0086,-0.0081,-0.0012,-0.0002,-0.0046,-0.0044,0.0052,0.0062,0.0071,0.0102,0.011,0.0114,0.0117,0.0238,0.0239,0.024,0,0,0,0,0,0,-0.0204,-0.0198,-0.0134,-0.0152,-0.0142,-0.0094,-0.0088,-0.0079,-0.0062,-0.0004,0.0007,-0.0038,0.0053,0.0065,0.0114,0.0106,0.0116,0.012,0.0237,0.0238,0.0239,0.0168,0,0,0,0,0,0,-0.0206,-0.0199,-0.0203,-0.0154,-0.0141,-0.0113,-0.0088,-0.0078,-0.0057,-0.0054,0.0007,0.0017,0.0053,0.0108,0.0119,0.0113,0.0124,0.0236,0.0238,0.0239,0.0169,0.0166,0.0163,0,0,0,0,0,-0.0209,-0.0219,-0.0204,-0.0197,-0.0147,-0.0113,-0.0104,-0.0069,-0.0057,-0.0053,-0.0003,0.0015,0.0123,0.0112,0.0125,0.012,0.0236,0.0237,0.0239,0.017,0.0167,0.0163,0,0,0,0,0,0,-0.0254,-0.0214,-0.0196,-0.0194,-0.0159,-0.0106,-0.01,-0.0074,-0.0031,-0.0028,0.0028,0.0042,0.0083,0.0117,0.0103,0.0162,0.0181,0.0185,0.0125,0.0121,0.0119,0.0084,0.0128,0,0,0,0,0,-0.0265,-0.0262,-0.0214,-0.0214,-0.0198,-0.0149,-0.0131,-0.0107,-0.0062,-0.0044,0.0002,0.0054,0.01,0.0122,0.017,0.0201,0.0225,0.0208,0.0205,0.0202,0.0185,0.0211,0.0208,0.0244,0.0244,0.0244,0,0,-0.0281,-0.0261,-0.0257,-0.0223,-0.0192,-0.0175,-0.0138,-0.0118,-0.0102,-0.0038,-0.0003,0.0047,0.0109,0.0147,0.0167,0.0172,0.021,0.0204,0.02,0.0185,0.0212,0.0208,0.0204,0.0245,0.0245,0.0245,0,0,-0.0314,-0.0294,-0.0298,-0.0272,-0.0235,-0.0202,-0.0199,-0.0145,-0.0121,-0.0078,-0.0028,0.0013,0.009,0.0124,0.0154,0.0164,0.0197,0.0185,0.0136,0.0161,0.0157,0.0154,0.0193,0.0194,0.0178,0.0178,0.0178,0,-0.0337,-0.0335,-0.0295,-0.0289,-0.0277,-0.0218,-0.0219,-0.0181,-0.0118,-0.0105,-0.0077,0.0023,0.0074,0.011,0.0117,0.0153,0.018,0.0139,0.0153,0.0151,0.0149,0.019,0.0192,0.0175,0.0175,0.0175,0.0176,0,-0.0363,-0.0362,-0.0364,-0.0338,-0.0318,-0.0311,-0.0256,-0.0233,-0.0195,-0.0158,-0.0112,-0.0036,0.0015,0.0043,0.0085,0.0099,0.0128,0.0147,0.0151,0.014,0.0185,0.0188,0.017,0.0171,0.0172,0.0173,0,0,-0.0419,-0.039,-0.0392,-0.0392,-0.0347,-0.0336,-0.0314,-0.0282,-0.0275,-0.0209,-0.0194,-0.0114,-0.008,-0.0044,0.0013,0.0036,0.0057,0.0079,0.0082,0.0098,0.0123,0.0179,0.0189,0.0076,0.0076,0.0076,0.0165,0,-0.0456,-0.0468,-0.044,-0.045,-0.0451,-0.0402,-0.0387,-0.0351,-0.0306,-0.0272,-0.0205,-0.016,-0.0109,-0.0083,-0.0054,0.004,0.006,0.0032,0.0148,0.0152,0.0186,0.0192,0.0223,0.0307,0.0168,0.0168,0.0169,0,-0.049,-0.0498,-0.0516,-0.0512,-0.0508,-0.0502,-0.0483,-0.046,-0.04,-0.0366,-0.0321,-0.0255,-0.0194,-0.0152,-0.0038,-0.0057,0.0016,0.0081,0.0086,0.016,0.0213,0.0296,0.0318,0.0432,0.0174,0.0174,0.0173,0,-0.0548,-0.0553,-0.0575,-0.057,-0.0549,-0.0554,-0.054,-0.0495,-0.0481,-0.0424,-0.0401,-0.0325,-0.0263,-0.0183,-0.0034,-0.004,0.0098,0.0109,0.0223,0.0228,0.0287,0.0298,0.0413,0.0162,0.0162,0.0162,0.0162,0,-0.0597,-0.0615,-0.0605,-0.0616,-0.0649,-0.061,-0.0627,-0.0601,-0.0557,-0.0534,-0.0454,-0.0405,-0.0269,-0.0161,-0.0055,0.0109,0.0083,0.0212,0.025,0.0268,0.0276,0.0405,0.0439,0.0165,0.0164,0.0164,0.0163,0,-0.0646,-0.0638,-0.0668,-0.067,-0.0674,-0.0694,-0.0685,-0.0689,-0.0639,-0.0602,-0.0583,-0.0455,-0.0303,-0.0161,0.0007,0.0101,0.0311,0.0294,0.0317,0.0356,0.0554,0.0582,0.0718,0.0775,0.0421,0.0423,0.0424,0,-0.0667,-0.0687,-0.0716,-0.0741,-0.0744,-0.0764,-0.0775,-0.0737,-0.0726,-0.0618,-0.0597,-0.0444,-0.0307,-0.0039,0.0145,0.0337,0.0405,0.0469,0.0454,0.057,0.063,0.0644,0.0683,0.0514,0.0516,0.0518,0.052,0,-0.0712,-0.0721,-0.0748,-0.0806,-0.0831,-0.0854,-0.0856,-0.0853,-0.0782,-0.071,-0.0573,-0.0452,-0.0187,0.0069,0.0311,0.0421,0.055,0.0511,0.0622,0.0702,0.0733,0.0805,0.0461,0.0535,0.0534,0.0533,0.0532,0.0531,-0.0741,-0.0779,-0.0816,-0.0867,-0.0901,-0.0917,-0.0914,-0.0865,-0.0801,-0.0624,-0.055,-0.0297,0.0004,0.0364,0.0485,0.0748,0.0698,0.0823,0.0847,0.085,0.0906,0.0603,0.0725,0.0724,0.0724,0.0723,0.0723,0,-0.0773,-0.0813,-0.0872,-0.0924,-0.0961,-0.0961,-0.0945,-0.088,-0.0754,-0.0538,-0.0363,0.0015,0.0328,0.06,0.0937,0.1078,0.1085,0.1142,0.1164,0.1185,0.092,0.0926,0.1108,0.1108,0.1108,0.1108,0.1108,0.1107,-0.079,-0.0851,-0.0883,-0.0952,-0.0984,-0.0983,-0.0956,-0.0812,-0.0638,-0.0234,0.0048,0.0233,0.055,0.1047,0.1358,0.1378,0.148,0.147,0.1522,0.134,0.1311,0.1284,0.13,0.1557,0.1557,0.178,0.1782,0.1784]}],[{"header":{"parameterUnit":"m.s-1","parameterCategory":2,"la1":30.2991,"la2":30.254,"lo1":-89.0895,"lo2":-89.0444,"dy":0.0017,"dx":0.0017,"nx":28,"ny":28,"refTime":"2024-10-10T09:00:00:Z","depth":"2","parameterNumber":2,"parameterNumberName":"U-component_of_CURRENTS"},"data":[0,0,0,0,0,0,0,0,0,0,0,0,0,0,0,0,0,0,0,0,0,0,0,0,0,0,0,0,0,0,0,0,0,0,0,0,0,0,0,0,0,0,0,0,0,0,0,0,0,0,0,0,0,0,0,0,0,0,-0.2021,-0.2022,0,-0.2085,-0.2085,-0.2086,-0.2027,-0.2025,-0.2023,-0.2021,-0.2013,-0.2014,-0.2016,0,0,0,0,0,0,0,0,0,0,0,0,0,-0.1928,-0.1929,-0.2021,-0.2022,-0.2023,-0.2085,-0.2085,-0.2086,-0.2027,-0.2025,-0.2022,-0.202,-0.2012,-0.2014,-0.2016,0,0,0,0,0,0,0,0,0,0,0,0,0,-0.1975,-0.193,-0.2021,-0.2003,-0.2002,-0.2084,-0.2085,-0.2086,-0.2028,-0.2025,-0.2021,-0.2018,-0.2011,-0.2014,-0.2017,-0.2097,0,0,-0.2025,-0.2026,0,0,0,0,0,0,0,0,-0.1972,-0.1978,-0.2005,-0.2005,-0.2004,-0.2047,-0.205,-0.2087,-0.2029,-0.2015,-0.2021,-0.2017,-0.2022,-0.2023,-0.2039,-0.2096,-0.2096,-0.2025,-0.2027,-0.2028,-0.2028,0,0,0,0,0,0,0,-0.1969,-0.1975,-0.2043,-0.2006,-0.2006,-0.202,-0.2022,-0.2057,-0.2032,-0.2016,-0.2013,-0.2025,-0.202,-0.2037,-0.2039,-0.2096,-0.2025,-0.2027,-0.2029,-0.203,-0.2108,-0.2109,0,0,0,0,0,0,-0.1966,-0.1972,-0.2041,-0.2046,-0.1983,-0.2024,-0.2026,-0.2034,-0.2033,-0.2031,-0.2028,-0.2022,-0.2034,-0.2036,-0.2038,-0.2031,-0.2028,-0.203,-0.2032,-0.2108,-0.2108,-0.2109,0,0,0,0,0,0,-0.1964,-0.1972,-0.2039,-0.2012,-0.2022,-0.2028,-0.2038,-0.2037,-0.2045,-0.2043,-0.2039,-0.2036,-0.2032,-0.2034,-0.2047,-0.2034,-0.2031,-0.2034,-0.2107,-0.2108,-0.2109,-0.2082,0,0,0,0,0,0,-0.1961,-0.1971,-0.1971,-0.2012,-0.2024,-0.2079,-0.2042,-0.2041,-0.206,-0.2052,-0.205,-0.2046,-0.2029,-0.2044,-0.205,-0.2037,-0.2036,-0.2106,-0.2107,-0.2108,-0.2082,-0.2082,-0.2082,0,0,0,0,0,-0.1958,-0.1972,-0.197,-0.1979,-0.2025,-0.208,-0.2087,-0.2079,-0.2063,-0.2073,-0.2059,-0.2045,-0.2053,-0.2047,-0.2054,-0.2042,-0.2106,-0.2107,-0.2108,-0.2083,-0.2082,-0.2082,0,0,0,0,0,0,-0.1937,-0.197,-0.1967,-0.1992,-0.2029,-0.207,-0.2086,-0.2091,-0.2096,-0.2086,-0.2068,-0.2065,-0.2066,-0.2075,-0.2068,-0.2068,-0.2073,-0.2075,-0.2051,-0.205,-0.205,-0.2045,-0.2038,0,0,0,0,0,-0.1936,-0.1947,-0.1992,-0.2012,-0.2033,-0.2065,-0.2086,-0.2092,-0.2108,-0.2107,-0.2104,-0.2097,-0.2085,-0.2081,-0.2087,-0.2108,-0.2105,-0.2102,-0.2101,-0.2101,-0.2103,-0.2086,-0.2083,-0.2112,-0.2112,-0.2112,0,0,-0.1929,-0.1955,-0.1958,-0.2008,-0.2037,-0.2055,-0.2068,-0.2113,-0.2108,-0.211,-0.2103,-0.2108,-0.2093,-0.209,-0.2092,-0.2089,-0.2092,-0.2102,-0.2101,-0.2104,-0.2087,-0.2083,-0.2081,-0.2113,-0.2113,-0.2113,0,0,-0.1932,-0.1956,-0.1963,-0.1993,-0.2046,-0.2068,-0.2082,-0.2131,-0.2129,-0.2144,-0.2124,-0.212,-0.2128,-0.2101,-0.2086,-0.21,-0.2094,-0.2107,-0.2095,-0.2078,-0.2075,-0.2072,-0.2065,-0.2062,-0.2101,-0.2101,-0.21,0,-0.1927,-0.1937,-0.1978,-0.1997,-0.2017,-0.2067,-0.2082,-0.2096,-0.2135,-0.2145,-0.213,-0.2131,-0.2119,-0.2094,-0.2081,-0.2094,-0.2096,-0.2091,-0.2075,-0.2072,-0.207,-0.2063,-0.206,-0.2099,-0.21,-0.21,-0.21,0,-0.192,-0.1936,-0.1955,-0.1975,-0.2005,-0.2042,-0.207,-0.2096,-0.2105,-0.2116,-0.212,-0.211,-0.2106,-0.2095,-0.2084,-0.2067,-0.2078,-0.2077,-0.207,-0.2065,-0.2059,-0.2056,-0.2098,-0.2098,-0.2099,-0.2099,0,0,-0.1893,-0.1939,-0.1942,-0.1955,-0.2002,-0.2035,-0.204,-0.2072,-0.2082,-0.2095,-0.2095,-0.2066,-0.2089,-0.2076,-0.2073,-0.2051,-0.2024,-0.2058,-0.2058,-0.204,-0.1999,-0.1946,-0.1938,-0.2023,-0.2022,-0.2022,-0.2002,0,-0.1879,-0.1905,-0.1926,-0.1946,-0.1967,-0.2012,-0.2015,-0.2048,-0.2067,-0.2084,-0.2076,-0.2075,-0.2069,-0.2073,-0.2051,-0.2041,-0.2016,-0.203,-0.2018,-0.2017,-0.196,-0.1932,-0.1787,-0.1751,-0.1999,-0.1998,-0.1998,0,-0.1849,-0.1879,-0.1895,-0.1948,-0.1963,-0.1971,-0.2015,-0.2029,-0.2058,-0.2076,-0.2084,-0.2092,-0.2073,-0.2063,-0.2029,-0.2045,-0.2021,-0.2003,-0.2001,-0.1958,-0.1957,-0.1798,-0.1737,-0.1993,-0.1993,-0.1994,-0.1994,0,-0.1807,-0.1855,-0.187,-0.1884,-0.1941,-0.1957,-0.1987,-0.2026,-0.2046,-0.2075,-0.2091,-0.2088,-0.208,-0.2054,-0.2021,-0.203,-0.1979,-0.1984,-0.1912,-0.1909,-0.1786,-0.1772,-0.1946,-0.1946,-0.1946,-0.1946,-0.1946,0,-0.1777,-0.1789,-0.1853,-0.186,-0.1885,-0.1937,-0.1962,-0.1997,-0.204,-0.205,-0.2087,-0.208,-0.2076,-0.2052,-0.2024,-0.1956,-0.198,-0.1902,-0.1892,-0.1774,-0.176,-0.1974,-0.1978,-0.1946,-0.1946,-0.1946,-0.1946,0,-0.1711,-0.1754,-0.1777,-0.1843,-0.1861,-0.1876,-0.1941,-0.1957,-0.2016,-0.2027,-0.2034,-0.2069,-0.2036,-0.2025,-0.1979,-0.1946,-0.1894,-0.1862,-0.173,-0.1703,-0.184,-0.1843,-0.1784,-0.1781,-0.178,-0.1778,-0.1777,0,-0.1672,-0.1677,-0.1744,-0.1752,-0.1776,-0.1814,-0.1834,-0.192,-0.1936,-0.1999,-0.1988,-0.1993,-0.1945,-0.1884,-0.1828,-0.1766,-0.1829,-0.1614,-0.1591,-0.1822,-0.1819,-0.1825,-0.183,-0.1422,-0.1418,-0.1415,-0.1412,0,-0.1589,-0.1615,-0.1633,-0.166,-0.1682,-0.1711,-0.175,-0.1766,-0.1849,-0.1861,-0.1845,-0.1816,-0.1779,-0.1646,-0.1604,-0.1552,-0.1616,-0.1544,-0.1797,-0.1491,-0.1481,-0.1479,-0.1495,-0.1382,-0.1385,-0.1387,-0.1389,-0.139,-0.1508,-0.1504,-0.153,-0.1542,-0.1571,-0.1576,-0.1559,-0.1608,-0.1612,-0.1606,-0.1649,-0.1563,-0.1562,-0.1403,-0.134,-0.1308,-0.1415,-0.136,-0.1371,-0.1385,-0.1351,-0.1338,-0.1208,-0.1209,-0.1211,-0.1213,-0.1214,0,-0.1394,-0.1402,-0.1408,-0.1418,-0.1397,-0.1456,-0.1469,-0.1429,-0.1386,-0.1398,-0.1357,-0.118,-0.1124,-0.1138,-0.1036,-0.1028,-0.1019,-0.0996,-0.0982,-0.1012,-0.1039,-0.0988,-0.0748,-0.0746,-0.0745,-0.0744,0,0,-0.1333,-0.1295,-0.1302,-0.1231,-0.1236,-0.1165,-0.1144,-0.1106,-0.1087,-0.098,-0.0933,-0.1034,-0.1066,-0.0893,-0.0869,-0.0787,-0.0885,-0.0747,-0.1116,-0.1126,-0.1151,-0.124,-0.1194,0,0,0,0,0]},{"header":{"parameterUnit":"m.s-1","parameterCategory":2,"la1":30.2991,"la2":30.254,"lo1":-89.0895,"lo2":-89.0444,"dy":0.0017,"dx":0.0017,"nx":28,"ny":28,"refTime":"2024-10-10T09:00:00:Z","depth":"2","parameterNumber":3,"parameterNumberName":"V-component_of_CURRENTS"},"data":[0,0,0,0,0,0,0,0,0,0,0,0,0,0,0,0,0,0,0,0,0,0,0,0,0,0,0,0,0,0,0,0,0,0,0,0,0,0,0,0,0,0,0,0,0,0,0,0,0,0,0,0,0,0,0,0,0,0,-0.0194,-0.0193,0,-0.0126,-0.0126,-0.0125,-0.0079,-0.0079,-0.0078,-0.0078,0.0034,0.0037,0.0039,0,0,0,0,0,0,0,0,0,0,0,0,0,-0.0256,-0.0255,-0.0194,-0.0193,-0.0192,-0.0127,-0.0126,-0.0125,-0.0079,-0.0079,-0.0078,-0.0078,0.0033,0.0036,0.0039,0,0,0,0,0,0,0,0,0,0,0,0,0,-0.0213,-0.0255,-0.0194,-0.0162,-0.0158,-0.0127,-0.0126,-0.0124,-0.0079,-0.0079,-0.0078,-0.0078,0.0032,0.0036,0.004,0.0056,0,0,0.0052,0.0054,0,0,0,0,0,0,0,0,-0.0215,-0.021,-0.0167,-0.0164,-0.016,-0.0111,-0.0106,-0.0062,-0.0079,-0.0109,-0.0078,-0.0078,-0.0011,-0.0003,0.0008,0.0061,0.0066,0.0053,0.0055,0.0057,0.0058,0,0,0,0,0,0,0,-0.0218,-0.0213,-0.0167,-0.0167,-0.0162,-0.0142,-0.0135,-0.0098,-0.0062,-0.0106,-0.0103,-0.0096,-0.0008,0.0004,0.0011,0.0068,0.0053,0.0056,0.0059,0.006,0.0162,0.0163,0,0,0,0,0,0,-0.0229,-0.0216,-0.0169,-0.0165,-0.0187,-0.0141,-0.0134,-0.0127,-0.0063,-0.0054,-0.0096,-0.0094,-0.0003,0.0006,0.0015,0.0045,0.0057,0.0061,0.0063,0.0162,0.0162,0.0163,0,0,0,0,0,0,-0.0231,-0.0226,-0.0172,-0.0189,-0.0181,-0.0141,-0.0133,-0.0126,-0.0112,-0.0057,-0.0046,-0.0091,-0.0002,0.001,0.0046,0.005,0.0063,0.0066,0.0162,0.0162,0.0163,0.0101,0,0,0,0,0,0,-0.0233,-0.0227,-0.023,-0.019,-0.018,-0.0159,-0.0133,-0.0125,-0.0109,-0.0105,-0.0048,-0.0037,-0.0001,0.004,0.005,0.0056,0.0069,0.0161,0.0162,0.0162,0.0102,0.0099,0.0096,0,0,0,0,0,-0.0235,-0.0247,-0.0231,-0.0225,-0.0185,-0.0159,-0.0153,-0.0122,-0.0109,-0.0107,-0.0068,-0.0039,0.0051,0.0043,0.0055,0.0062,0.0161,0.0162,0.0162,0.0104,0.01,0.0096,0,0,0,0,0,0,-0.0276,-0.0242,-0.0223,-0.0223,-0.0194,-0.0152,-0.015,-0.0127,-0.0095,-0.0091,-0.0038,-0.0025,0.0011,0.0044,0.0034,0.0094,0.0112,0.0115,0.0064,0.006,0.0057,0.0047,0.0073,0,0,0,0,0,-0.0287,-0.0285,-0.0244,-0.0243,-0.0232,-0.0191,-0.0178,-0.0156,-0.0121,-0.0107,-0.0063,-0.0017,0.0023,0.0046,0.0087,0.0115,0.0147,0.013,0.0127,0.0124,0.0125,0.0164,0.0164,0.0165,0.0165,0.0165,0,0,-0.03,-0.0283,-0.028,-0.0252,-0.0227,-0.0213,-0.0182,-0.0167,-0.015,-0.0099,-0.0066,-0.0027,0.0028,0.0062,0.0081,0.009,0.014,0.0124,0.0121,0.0125,0.0164,0.0164,0.0164,0.0165,0.0165,0.0165,0,0,-0.0327,-0.0312,-0.0316,-0.0296,-0.0265,-0.0238,-0.0235,-0.0191,-0.0169,-0.0137,-0.0092,-0.0054,0.0006,0.0047,0.0075,0.008,0.0121,0.0095,0.0071,0.0108,0.0108,0.0108,0.0143,0.0147,0.0093,0.0093,0.0093,0,-0.0346,-0.0342,-0.0314,-0.0309,-0.0296,-0.0251,-0.0247,-0.0218,-0.0166,-0.0147,-0.0135,-0.0043,0.0,0.0048,0.005,0.0073,0.0098,0.0077,0.0102,0.0103,0.0104,0.0141,0.0146,0.009,0.009,0.009,0.0091,0,-0.0366,-0.0364,-0.0367,-0.0343,-0.0325,-0.0319,-0.0273,-0.0251,-0.0221,-0.0185,-0.0137,-0.008,-0.0026,-0.0005,0.0024,0.006,0.0076,0.0091,0.0106,0.01,0.0139,0.0146,0.0086,0.0087,0.0087,0.0088,0,0,-0.0409,-0.0386,-0.0387,-0.0384,-0.0344,-0.0335,-0.0308,-0.027,-0.0254,-0.0203,-0.0174,-0.0107,-0.0076,-0.0042,0.0003,0.0036,0.0066,0.0061,0.0064,0.0085,0.0145,0.0175,0.0186,0.0079,0.008,0.0081,0.0166,0,-0.0433,-0.0441,-0.0416,-0.0418,-0.0418,-0.0372,-0.0352,-0.0311,-0.027,-0.023,-0.0167,-0.0123,-0.0089,-0.0067,-0.0028,0.0047,0.0081,0.0041,0.0157,0.0161,0.018,0.0194,0.0175,0.0251,0.0173,0.0174,0.0175,0,-0.0459,-0.0464,-0.0473,-0.0459,-0.0454,-0.0445,-0.041,-0.0384,-0.0316,-0.0283,-0.0229,-0.0173,-0.0106,-0.0083,0.0032,0.0004,0.0067,0.0121,0.0126,0.0182,0.0204,0.0247,0.0267,0.0186,0.0185,0.0184,0.0183,0,-0.0508,-0.0504,-0.0517,-0.0511,-0.0484,-0.048,-0.0462,-0.0405,-0.0384,-0.0315,-0.0291,-0.0203,-0.0153,-0.0069,0.0048,0.0038,0.0174,0.0177,0.0266,0.0268,0.0291,0.0295,0.0253,0.0253,0.0253,0.0253,0.0252,0,-0.0546,-0.0557,-0.0545,-0.0553,-0.0572,-0.053,-0.0531,-0.0496,-0.0441,-0.0411,-0.0326,-0.0275,-0.0149,-0.005,0.0042,0.0181,0.0173,0.0269,0.0296,0.027,0.0271,0.0245,0.0243,0.0256,0.0255,0.0254,0.0254,0,-0.0593,-0.0582,-0.0603,-0.0595,-0.0596,-0.061,-0.0588,-0.0581,-0.0521,-0.0477,-0.0456,-0.0325,-0.0189,-0.0058,0.0099,0.018,0.0303,0.0352,0.0315,0.0335,0.0371,0.0365,0.0455,0.0456,0.0458,0.0459,0.0461,0,-0.0614,-0.063,-0.0649,-0.067,-0.0671,-0.0681,-0.0685,-0.0633,-0.0613,-0.0498,-0.0476,-0.0331,-0.0207,0.0035,0.0196,0.0368,0.0358,0.0445,0.0427,0.0377,0.0394,0.0385,0.0377,0.0433,0.0433,0.0434,0.0435,0,-0.0658,-0.0666,-0.0686,-0.0736,-0.0756,-0.0768,-0.0762,-0.0754,-0.0672,-0.0599,-0.0468,-0.0356,-0.012,0.0087,0.0302,0.0394,0.0414,0.0465,0.0434,0.0382,0.0363,0.0376,0.0368,0.044,0.044,0.0439,0.0439,0.0439,-0.069,-0.0722,-0.0753,-0.0798,-0.0824,-0.0834,-0.0831,-0.0783,-0.0717,-0.0571,-0.047,-0.0263,-0.0092,0.0238,0.0372,0.0493,0.0493,0.0521,0.0517,0.0512,0.0492,0.0476,0.0571,0.0572,0.0572,0.0572,0.0572,0,-0.0724,-0.0759,-0.081,-0.0853,-0.0885,-0.0882,-0.0862,-0.0817,-0.0712,-0.0551,-0.0389,-0.0172,0.0072,0.0241,0.0446,0.0563,0.0535,0.0569,0.051,0.0505,0.05,0.0476,0.0553,0.0553,0.0554,0.0554,0,0,-0.0743,-0.0798,-0.0825,-0.0887,-0.0915,-0.0918,-0.0897,-0.0792,-0.0669,-0.0495,-0.0324,-0.0106,0.0097,0.0236,0.0372,0.0471,0.045,0.0472,0.0477,0.0386,0.0379,0.0467,0.0425,0,0,0,0,0]}],[{"header":{"parameterUnit":"m.s-1","parameterCategory":2,"la1":30.2991,"la2":30.254,"lo1":-89.0895,"lo2":-89.0444,"dy":0.0017,"dx":0.0017,"nx":28,"ny":28,"refTime":"2024-10-10T09:00:00:Z","depth":"4","parameterNumber":2,"parameterNumberName":"U-component_of_CURRENTS"},"data":[0,0,0,0,0,0,0,0,0,0,0,0,0,0,0,0,0,0,0,0,0,0,0,0,0,0,0,0,0,0,0,0,0,0,0,0,0,0,0,0,0,0,0,0,0,0,0,0,0,0,0,0,0,0,0,0,0,0,-0.1207,-0.1208,0,-0.1272,-0.1272,-0.1273,-0.13,-0.13,-0.1301,-0.1301,-0.1354,-0.1356,-0.1357,0,0,0,0,0,0,0,0,0,0,0,0,0,-0.1103,-0.1104,-0.1207,-0.1208,-0.121,-0.1272,-0.1272,-0.1273,-0.13,-0.13,-0.1301,-0.1301,-0.1354,-0.1356,-0.1357,0,0,0,0,0,0,0,0,0,0,0,0,0,-0.1152,-0.1105,-0.1207,-0.1233,-0.1236,-0.1272,-0.1272,-0.1273,-0.13,-0.13,-0.1301,-0.1301,-0.1354,-0.1355,-0.1357,-0.1363,0,0,-0.1363,-0.1364,0,0,0,0,0,0,0,0,-0.115,-0.1156,-0.1228,-0.1232,-0.1235,-0.1281,-0.1255,-0.1304,-0.13,-0.1272,-0.1301,-0.1301,-0.1331,-0.1335,-0.1341,-0.1365,-0.1368,-0.1363,-0.1364,-0.1365,-0.1366,0,0,0,0,0,0,0,-0.1146,-0.1153,-0.1229,-0.123,-0.1234,-0.124,-0.1247,-0.1264,-0.1296,-0.1275,-0.1278,-0.129,-0.1332,-0.134,-0.1343,-0.1368,-0.1363,-0.1365,-0.1366,-0.1367,-0.1417,-0.1418,0,0,0,0,0,0,-0.1145,-0.115,-0.1227,-0.1232,-0.1196,-0.1242,-0.125,-0.1263,-0.1296,-0.1303,-0.129,-0.1291,-0.1336,-0.1341,-0.1345,-0.1381,-0.1365,-0.1367,-0.1368,-0.1417,-0.1417,-0.1418,0,0,0,0,0,0,-0.1143,-0.1152,-0.1225,-0.1195,-0.1205,-0.1244,-0.1259,-0.1265,-0.1295,-0.1309,-0.1314,-0.1317,-0.1337,-0.1342,-0.1367,-0.1382,-0.1368,-0.1369,-0.1417,-0.1417,-0.1418,-0.1436,0,0,0,0,0,0,-0.1139,-0.115,-0.1165,-0.1195,-0.1207,-0.1252,-0.1259,-0.1266,-0.1302,-0.1305,-0.1334,-0.1338,-0.1337,-0.1364,-0.1369,-0.1385,-0.1371,-0.1417,-0.1417,-0.1417,-0.1435,-0.1437,-0.1438,0,0,0,0,0,-0.1135,-0.1156,-0.1166,-0.1176,-0.1225,-0.1253,-0.1259,-0.1285,-0.1304,-0.1314,-0.1331,-0.1338,-0.137,-0.1366,-0.1372,-0.1388,-0.1416,-0.1417,-0.1417,-0.1434,-0.1436,-0.1438,0,0,0,0,0,0,-0.1127,-0.1162,-0.1173,-0.1206,-0.123,-0.1259,-0.1281,-0.13,-0.1323,-0.1333,-0.1345,-0.1349,-0.137,-0.1378,-0.1374,-0.1402,-0.1393,-0.1395,-0.1404,-0.1407,-0.1408,-0.1422,-0.1372,0,0,0,0,0,-0.113,-0.1153,-0.1183,-0.1212,-0.1226,-0.1258,-0.1278,-0.1295,-0.1319,-0.1331,-0.1351,-0.1367,-0.1373,-0.1391,-0.1394,-0.1421,-0.1427,-0.1433,-0.1435,-0.1436,-0.145,-0.1474,-0.148,-0.1419,-0.1419,-0.1419,0,0,-0.1141,-0.116,-0.1177,-0.1211,-0.1235,-0.1256,-0.127,-0.1306,-0.1328,-0.1333,-0.1372,-0.1373,-0.1379,-0.1395,-0.1407,-0.141,-0.1451,-0.1437,-0.1438,-0.1451,-0.1476,-0.1482,-0.1487,-0.142,-0.142,-0.142,0,0,-0.1154,-0.1186,-0.1199,-0.1219,-0.1254,-0.1274,-0.1289,-0.1325,-0.1346,-0.1377,-0.1378,-0.1394,-0.1418,-0.1422,-0.1426,-0.1445,-0.1451,-0.1445,-0.1479,-0.1502,-0.1508,-0.1513,-0.1505,-0.151,-0.1456,-0.1456,-0.1456,0,-0.116,-0.1193,-0.1209,-0.1222,-0.1254,-0.1284,-0.1312,-0.133,-0.137,-0.1389,-0.1392,-0.1427,-0.1431,-0.1453,-0.1454,-0.1451,-0.1456,-0.1471,-0.1506,-0.1511,-0.1516,-0.1507,-0.1512,-0.1457,-0.1457,-0.1457,-0.1457,0,-0.1174,-0.1209,-0.1225,-0.1253,-0.1277,-0.1317,-0.1341,-0.1368,-0.1402,-0.1419,-0.1454,-0.1458,-0.1482,-0.148,-0.1475,-0.1509,-0.1497,-0.1497,-0.1503,-0.1523,-0.1512,-0.1517,-0.1459,-0.1458,-0.1458,-0.1458,0,0,-0.1168,-0.1227,-0.1234,-0.1268,-0.1309,-0.1336,-0.1367,-0.1411,-0.1445,-0.1467,-0.1514,-0.1517,-0.1526,-0.1531,-0.1529,-0.1554,-0.1578,-0.1547,-0.1548,-0.1544,-0.1613,-0.1489,-0.1481,-0.159,-0.1592,-0.1593,-0.1584,0,-0.1184,-0.1237,-0.1255,-0.1317,-0.1356,-0.1389,-0.1418,-0.145,-0.1483,-0.1525,-0.1536,-0.1567,-0.1543,-0.1563,-0.158,-0.1583,-0.1595,-0.1579,-0.1591,-0.1591,-0.1482,-0.1484,-0.1597,-0.1587,-0.1588,-0.1589,-0.1589,0,-0.119,-0.1233,-0.1302,-0.1378,-0.1397,-0.1429,-0.1504,-0.1529,-0.1567,-0.1589,-0.1614,-0.1621,-0.1648,-0.1633,-0.1649,-0.1643,-0.1631,-0.1629,-0.1629,-0.1515,-0.1476,-0.1567,-0.1597,-0.1597,-0.1596,-0.1595,-0.1595,0,-0.1195,-0.1269,-0.1341,-0.1367,-0.1439,-0.1477,-0.1516,-0.1555,-0.1583,-0.1634,-0.166,-0.1683,-0.1706,-0.1708,-0.1677,-0.1679,-0.1689,-0.1689,-0.1561,-0.1552,-0.1661,-0.1656,-0.1706,-0.1706,-0.1706,-0.1706,-0.1706,0,-0.121,-0.1265,-0.1357,-0.1393,-0.1462,-0.1505,-0.1568,-0.1596,-0.1646,-0.1663,-0.1696,-0.1705,-0.1732,-0.1727,-0.17,-0.1625,-0.17,-0.1564,-0.1545,-0.1664,-0.1659,-0.1662,-0.1658,-0.1705,-0.1705,-0.1706,-0.1706,0,-0.1188,-0.1262,-0.1335,-0.1432,-0.1464,-0.1507,-0.1583,-0.161,-0.1669,-0.1695,-0.1713,-0.1739,-0.1714,-0.1708,-0.1704,-0.1638,-0.1594,-0.1548,-0.1654,-0.1642,-0.1438,-0.1434,-0.1417,-0.1413,-0.1409,-0.1406,-0.1403,0,-0.1182,-0.1222,-0.1338,-0.137,-0.1415,-0.1489,-0.1519,-0.1601,-0.1617,-0.1683,-0.1677,-0.1695,-0.1686,-0.156,-0.158,-0.1514,-0.1492,-0.1465,-0.1469,-0.1427,-0.1411,-0.1413,-0.1414,-0.1397,-0.1396,-0.1395,-0.1394,0,-0.1139,-0.1191,-0.124,-0.131,-0.1364,-0.1414,-0.147,-0.1483,-0.1552,-0.1637,-0.1578,-0.1544,-0.1512,-0.1469,-0.142,-0.1378,-0.1485,-0.1426,-0.1434,-0.1438,-0.1403,-0.1391,-0.1397,-0.1381,-0.1383,-0.1384,-0.1385,0,-0.1085,-0.1105,-0.1169,-0.1215,-0.128,-0.1295,-0.1352,-0.1358,-0.1391,-0.1468,-0.1442,-0.1444,-0.1485,-0.1397,-0.1354,-0.1298,-0.1284,-0.1247,-0.1264,-0.1279,-0.1236,-0.1172,-0.106,0,0,0,0,0,-0.102,-0.1025,-0.1061,-0.1106,-0.1165,-0.1197,-0.1284,-0.1339,-0.1431,-0.1344,-0.1385,-0.1333,-0.1262,-0.1271,-0.118,-0.1307,-0.1301,-0.12,-0.1272,-0.131,-0.1325,-0.1286,0,0,0,0,0,0,-0.0974,-0.1004,-0.1021,-0.0995,-0.0998,-0.1048,-0.1096,-0.1165,-0.1126,-0.1216,-0.1175,-0.1244,-0.1189,-0.127,-0.1143,-0.1148,-0.1165,-0.1217,-0.1213,-0.1301,-0.1315,-0.1327,-0.1293,0,0,0,0,0]},{"header":{"parameterUnit":"m.s-1","parameterCategory":2,"la1":30.2991,"la2":30.254,"lo1":-89.0895,"lo2":-89.0444,"dy":0.0017,"dx":0.0017,"nx":28,"ny":28,"refTime":"2024-10-10T09:00:00:Z","depth":"4","parameterNumber":3,"parameterNumberName":"V-component_of_CURRENTS"},"data":[0,0,0,0,0,0,0,0,0,0,0,0,0,0,0,0,0,0,0,0,0,0,0,0,0,0,0,0,0,0,0,0,0,0,0,0,0,0,0,0,0,0,0,0,0,0,0,0,0,0,0,0,0,0,0,0,0,0,-0.0189,-0.0189,0,-0.0165,-0.0165,-0.0164,-0.0129,-0.0128,-0.0128,-0.0127,-0.0056,-0.0055,-0.0054,0,0,0,0,0,0,0,0,0,0,0,0,0,-0.0218,-0.0217,-0.0189,-0.0189,-0.0188,-0.0165,-0.0164,-0.0164,-0.0129,-0.0128,-0.0128,-0.0127,-0.0057,-0.0055,-0.0053,0,0,0,0,0,0,0,0,0,0,0,0,0,-0.02,-0.0217,-0.0189,-0.0168,-0.0166,-0.0165,-0.0164,-0.0164,-0.0129,-0.0128,-0.0128,-0.0127,-0.0057,-0.0055,-0.0053,-0.0058,0,0,-0.0047,-0.0046,0,0,0,0,0,0,0,0,-0.0201,-0.0199,-0.0172,-0.017,-0.0168,-0.0149,-0.0149,-0.0126,-0.0129,-0.0143,-0.0127,-0.0126,-0.0084,-0.008,-0.0077,-0.0055,-0.0052,-0.0047,-0.0046,-0.0045,-0.0044,0,0,0,0,0,0,0,-0.0203,-0.02,-0.0179,-0.0172,-0.0169,-0.0165,-0.0161,-0.0145,-0.0117,-0.0142,-0.0139,-0.0137,-0.0082,-0.0079,-0.0075,-0.0051,-0.0047,-0.0045,-0.0044,-0.0043,-0.0001,-0.0001,0,0,0,0,0,0,-0.0207,-0.0201,-0.018,-0.0178,-0.0183,-0.0165,-0.0161,-0.0156,-0.0118,-0.0112,-0.0138,-0.0136,-0.0083,-0.0078,-0.0072,-0.0053,-0.0045,-0.0043,-0.0042,-0.0001,-0.0001,-0.0001,0,0,0,0,0,0,-0.0207,-0.0205,-0.0181,-0.019,-0.0186,-0.0165,-0.016,-0.0156,-0.0151,-0.0116,-0.0109,-0.0138,-0.0082,-0.0075,-0.0061,-0.005,-0.0042,-0.004,-0.0001,-0.0001,-0.0001,-0.0028,0,0,0,0,0,0,-0.0208,-0.0205,-0.0209,-0.019,-0.0186,-0.0182,-0.0161,-0.0156,-0.0152,-0.0149,-0.0114,-0.0106,-0.0081,-0.0065,-0.0059,-0.0047,-0.0038,-0.0,-0.0001,-0.0001,-0.0027,-0.0029,-0.0031,0,0,0,0,0,-0.0209,-0.022,-0.0209,-0.0207,-0.0189,-0.0183,-0.0181,-0.0163,-0.0153,-0.0155,-0.0133,-0.0107,-0.0061,-0.0064,-0.0057,-0.0044,-0.0,-0.0001,-0.0001,-0.0026,-0.0028,-0.0031,0,0,0,0,0,0,-0.0235,-0.0217,-0.0204,-0.0209,-0.0196,-0.0177,-0.0182,-0.0168,-0.0155,-0.0151,-0.0116,-0.0108,-0.0089,-0.0069,-0.0073,-0.0033,-0.0024,-0.0023,-0.0045,-0.0047,-0.0049,-0.0037,-0.0037,0,0,0,0,0,-0.0242,-0.0244,-0.0224,-0.0227,-0.0224,-0.0204,-0.0201,-0.0187,-0.0171,-0.0164,-0.0139,-0.0111,-0.0087,-0.007,-0.005,-0.0034,-0.0002,-0.0019,-0.0021,-0.0023,-0.0009,0.004,0.0044,-0.0002,-0.0002,-0.0002,0,0,-0.0253,-0.0244,-0.0244,-0.0233,-0.0223,-0.0217,-0.02,-0.0199,-0.0186,-0.0159,-0.0141,-0.0122,-0.0087,-0.0066,-0.0054,-0.0046,0.0003,-0.0023,-0.0025,-0.001,0.0041,0.0045,0.0049,-0.0002,-0.0002,-0.0002,0,0,-0.0273,-0.0267,-0.0273,-0.0264,-0.0252,-0.0237,-0.0238,-0.0219,-0.0205,-0.0192,-0.0163,-0.0136,-0.011,-0.0071,-0.005,-0.005,-0.0014,-0.0049,-0.0041,0.0006,0.001,0.0015,0.0046,0.0053,-0.0044,-0.0044,-0.0044,0,-0.0286,-0.0285,-0.0275,-0.0274,-0.0267,-0.0246,-0.0245,-0.0229,-0.0206,-0.0187,-0.0189,-0.0128,-0.0103,-0.0053,-0.0054,-0.005,-0.0029,-0.0036,0.0005,0.001,0.0015,0.0046,0.0054,-0.0045,-0.0045,-0.0045,-0.0045,0,-0.0301,-0.0302,-0.0307,-0.0293,-0.0286,-0.0286,-0.0258,-0.0246,-0.023,-0.0202,-0.0163,-0.0132,-0.0088,-0.0079,-0.0067,-0.0016,-0.0016,-0.0009,0.0012,0.0018,0.005,0.0059,-0.0047,-0.0047,-0.0046,-0.0046,0,0,-0.0326,-0.0319,-0.0321,-0.0318,-0.0296,-0.0294,-0.027,-0.0238,-0.0215,-0.0187,-0.0151,-0.0106,-0.0084,-0.0058,-0.0035,0.0006,0.0051,0.0009,0.0012,0.0042,0.0141,0.0118,0.0126,0.006,0.0062,0.0063,0.0143,0,-0.0339,-0.035,-0.0334,-0.0336,-0.0338,-0.0307,-0.0285,-0.0251,-0.0218,-0.018,-0.0126,-0.0092,-0.0077,-0.0063,-0.0015,0.0029,0.0077,0.0028,0.013,0.0133,0.0114,0.0138,0.0069,0.015,0.0153,0.0154,0.0156,0,-0.0356,-0.0361,-0.0371,-0.0356,-0.0353,-0.0348,-0.0309,-0.0286,-0.0218,-0.019,-0.0132,-0.0094,-0.0026,-0.0024,0.0085,0.0048,0.0098,0.0136,0.014,0.014,0.0128,0.0147,0.0173,0.0172,0.0171,0.0169,0.0168,0,-0.0386,-0.0385,-0.0398,-0.0394,-0.0372,-0.0367,-0.0351,-0.0293,-0.0271,-0.0198,-0.0174,-0.0082,-0.0048,0.0034,0.011,0.0098,0.0223,0.0219,0.0255,0.0253,0.0261,0.0256,0.0313,0.0313,0.0313,0.0313,0.0313,0,-0.0407,-0.0418,-0.042,-0.0428,-0.0438,-0.0405,-0.0396,-0.036,-0.0304,-0.027,-0.019,-0.0143,-0.0034,0.0048,0.012,0.0213,0.0238,0.0269,0.028,0.0244,0.0236,0.0267,0.0261,0.0316,0.0315,0.0315,0.0314,0,-0.0438,-0.0439,-0.0459,-0.0455,-0.0459,-0.0469,-0.045,-0.0434,-0.0375,-0.0329,-0.031,-0.0188,-0.0079,0.0031,0.0168,0.0216,0.0312,0.0344,0.0292,0.0297,0.0307,0.0299,0.0393,0.0393,0.0393,0.0393,0.0393,0,-0.0453,-0.0469,-0.0497,-0.052,-0.0525,-0.0536,-0.0537,-0.0484,-0.0459,-0.0353,-0.033,-0.0211,-0.0124,0.0061,0.0168,0.0315,0.0332,0.0376,0.0353,0.0319,0.032,0.0311,0.0303,0.0393,0.0393,0.0393,0.0393,0,-0.048,-0.0498,-0.0518,-0.0571,-0.0594,-0.0604,-0.0599,-0.0584,-0.0504,-0.0459,-0.0327,-0.0209,-0.0081,0.0064,0.0178,0.0281,0.0341,0.0376,0.0377,0.0356,0.032,0.0319,0.0311,0.0393,0.0393,0.0393,0.0393,0,-0.0504,-0.0532,-0.0569,-0.061,-0.0646,-0.0652,-0.0645,-0.059,-0.0547,-0.0419,-0.0377,-0.0214,-0.0111,0.0048,0.0153,0.0249,0.0269,0.0289,0.0295,0.0296,0.0236,0.0174,0.0226,0,0,0,0,0,-0.052,-0.0554,-0.0601,-0.064,-0.0675,-0.0689,-0.067,-0.0644,-0.0573,-0.0485,-0.0421,-0.029,-0.0096,-0.0002,0.0091,0.0125,0.0259,0.0234,0.0277,0.0394,0.0394,0.0337,0,0,0,0,0,0,-0.0531,-0.0581,-0.0604,-0.0652,-0.0684,-0.0707,-0.0695,-0.0648,-0.058,-0.0495,-0.0385,-0.0294,-0.0108,-0.0157,0.0084,0.0116,0.0151,0.0335,0.0336,0.0394,0.0394,0.0394,0.0336,0,0,0,0,0]}]]